Simultaneous Nadir Overpasses (SNOs) Predictions

Prediction of SNOs between AURA and NPP Satellite Orbit:

Table of predicted SNOs for the next 14.0 days since TLE Epoch: 7/18/2014
Index Date (AURA) Time (AURA) Lat,Lon (AURA) SZA (AURA ) Date (NPP) Time (NPP) Lat,Lon (NPP) SZA (NPP ) Distance(km) Time Diff (sec)
1 07/19/2014 15:02:52 76.02,-164.47 76.74 07/19/2014 15:02:49 76.02,-164.50 76.75 0.95 3
2 07/19/2014 15:52:02 -76.87, 5.99 104.27 07/19/2014 15:53:16 -76.87, 5.96 104.32 0.91 74
3 07/22/2014 06:30:04 -75.46, 142.12 102.12 07/22/2014 06:29:17 -75.46, 142.10 102.07 0.60 47
4 07/22/2014 07:19:07 76.55, -46.88 76.63 07/22/2014 07:19:37 76.56, -46.79 76.58 2.62 30
5 07/24/2014 22:46:24 -75.74,-101.19 101.89 07/24/2014 22:46:11 -75.73,-101.25 101.87 1.79 13
6 07/24/2014
